COSMOS 2428 - Orbit

View from above orbital plane
View from above orbital plane
View from above satellite
View from above satellite

Ground track
Ground track

The orbit data is extracted from the following two-line orbital elements,

1 31792U 07029A   13141.19503472  .00000137  00000-0  10000-3 0  5385
2 31792 070.9609 291.1902 0009890 353.6000 351.9256 14.12317680303967
Epoch (UTC): 21 May 2013 04:40:51
Eccentricity: 0.0009890
inclination: 70.9609°
perigee height: 844 km
apogee height: 858 km
right ascension of ascending node: 291.1902°
argument of perigee: 353.6000°
revolutions per day: 14.12317680
mean anomaly at epoch: 351.9256°
orbit number at epoch: 30396

The dashed part of the orbit path shows where the satellite is in the earth's shadow,  

Developed and maintained by Chris Peat, Heavens-Above GmbH. Please read the updated FAQ before sending e-mail. Imprint. DLR